Retour au catalogue

FENGYUN 1C DEB

ActifPO
NORAD 38813·DEBRIS·🇨🇳 China

Lancé May 10, 1999 depuis Taiyuan Satellite Launch Center

Loading…

Prochains Passages (prochaines 24 heures)

TLE

FraisSource: Space-Track

Époque: Sep 12, 2026, 07:30 UTC

1 38813U 99025EVD 26255.31250659  .00000534  00000-0  27081-3 0  9992
2 38813  99.3461 272.9574 0006957  70.0972 290.0952 14.20682217521340

Suivez FENGYUN 1C DEB en temps réel avec AllMySat

Download on the App Store